(410) Chloris

Orbital Elements

The following orbital elements are taken from MPC 27290:
  (410) Chloris
Epoch 2001 Apr. 1.0 TT = JDT 2452000.5                  Goffin
M 341.29724              (2000.0)            P               Q
n   0.21872029     Peri.  172.23494     -0.00596977     +0.98214576
a   2.7282029      Node    97.28379     -0.92735231     +0.06491374
e   0.2378998      Incl.   10.92690     -0.37414175     -0.17656701
P   4.51           H    8.30          G   0.15           U   0
From 264 observations at 50 oppositions, 1896-1995, mean residual 0".77.
An explanation of the orbital elements is available.

These orbital elements are also available in forms suitable for loading into a number of popular planetarium-type software programs.


Ephemeris

The following ephemeris is at intervals of five days. A daily ephemeris covering the same time interval is also available.

Date    TT    R. A. (2000) Decl.     Delta      r     Elong.  Phase     V
 
2001 04 21    18 02.65   -14 59.6    1.424    2.113   119.9    24.3    11.8
2001 04 26    18 05.35   -15 08.4    1.373    2.108   124.1    23.3    11.7
2001 05 01    18 07.29   -15 19.3    1.324    2.104   128.4    22.0    11.6
2001 05 06    18 08.45   -15 32.7    1.278    2.100   133.0    20.6    11.5
2001 05 11    18 08.79   -15 48.8    1.236    2.096   137.7    18.9    11.3
2001 05 16    18 08.31   -16 08.1    1.197    2.092   142.6    17.1    11.2
2001 05 21    18 07.00   -16 30.7    1.163    2.089   147.6    15.0    11.1
2001 05 26    18 04.90   -16 56.6    1.133    2.087   152.9    12.8    10.9
2001 05 31    18 02.07   -17 25.7    1.108    2.084   158.3    10.4    10.8
2001 06 05    17 58.61   -17 57.8    1.089    2.083   163.8     7.8    10.6
2001 06 10    17 54.66   -18 32.5    1.075    2.081   169.3     5.2    10.5
2001 06 15    17 50.35   -19 09.3    1.067    2.080   174.3     2.8    10.3
2001 06 20    17 45.85   -19 47.5    1.065    2.079   175.8     2.0    10.3
2001 06 25    17 41.38   -20 26.6    1.068    2.079   171.6     4.1    10.4
2001 06 30    17 37.12   -21 05.8    1.078    2.079   166.2     6.7    10.6
2001 07 05    17 33.26   -21 44.8    1.093    2.080   160.7     9.3    10.7
2001 07 10    17 29.96   -22 23.1    1.114    2.081   155.2    11.8    10.8
2001 07 15    17 27.33   -23 00.2    1.139    2.082   149.9    14.2    11.0
2001 07 20    17 25.47   -23 36.0    1.170    2.084   144.7    16.3    11.1
2001 07 25    17 24.46   -24 10.3    1.205    2.086   139.8    18.3    11.2
2001 07 30    17 24.35   -24 43.1    1.244    2.089   135.0    20.1    11.4
2001 08 04    17 25.12   -25 14.2    1.286    2.092   130.4    21.7    11.5
2001 08 09    17 26.77   -25 43.6    1.332    2.095   126.0    23.0    11.6
2001 08 14    17 29.27   -26 11.2    1.381    2.099   121.8    24.2    11.7
2001 08 19    17 32.58   -26 36.9    1.432    2.103   117.7    25.2    11.9

Back to Bright Minor Planets

Astronomical Headlines Index

MPC